HAZ2122 ZWWW-ZSHC

Flight info

Callsign HAZ2122
Flight time N/A
Altitude 35100
Route WUR W190 ADPET W188 DAKPA W189 AKLAS W192 ESDEX W191 DNC W565 BIGUX W214 HO H14 P396 H131 ATGEN W283 SUDGO H132 P234 H36 SNF W269 OLPOV B213 WHA R343 SAGUD W50 XSH H17 JDZ H26 TXN G204 OREXA
Aircraft A320/M-SDE3FGHIRWY/LB1

Departure

Time 2026-05-07 12:38
Airport Ürümqi Tianshan International Airport (ZWWW)

Arrival

Time N/A
Airport Hangzhou Xiaoshan International Airport (ZSHC)
Time Latitude Longitude Altitude Speed Heading
2026-05-07 12:17 43.91783 87.46842 2136 ft 0 kts 74°
2026-05-07 12:18 43.91783 87.46843 2136 ft 0 kts 74°
2026-05-07 12:30 43.91778 87.46822 2135 ft 3 kts 66°
2026-05-07 12:30 43.91768 87.46796 2135 ft 3 kts 50°
2026-05-07 12:30 43.91753 87.46777 2133 ft 3 kts 26°
2026-05-07 12:30 43.91733 87.46768 2135 ft 3 kts 357°
2026-05-07 12:31 43.91721 87.46770 2134 ft 0 kts 343°
2026-05-07 12:33 43.91754 87.46757 2135 ft 9 kts 343°
2026-05-07 12:33 43.91828 87.46726 2135 ft 12 kts 344°
2026-05-07 12:33 43.91930 87.46685 2135 ft 16 kts 342°
2026-05-07 12:34 43.92039 87.46637 2135 ft 17 kts 338°
2026-05-07 12:34 43.92059 87.46508 2134 ft 16 kts 253°
2026-05-07 12:34 43.92020 87.46326 2136 ft 24 kts 253°
2026-05-07 12:34 43.91973 87.46099 2134 ft 25 kts 255°
2026-05-07 12:35 43.91924 87.45870 2134 ft 25 kts 253°
2026-05-07 12:35 43.91875 87.45640 2136 ft 25 kts 253°
2026-05-07 12:35 43.91842 87.45488 2134 ft 25 kts 254°
2026-05-07 12:35 43.91792 87.45249 2136 ft 11 kts 255°
2026-05-07 12:36 43.91811 87.45173 2136 ft 8 kts 317°
2026-05-07 12:36 43.91856 87.45154 2136 ft 7 kts 348°
2026-05-07 12:36 43.91919 87.45135 2137 ft 7 kts 347°
2026-05-07 12:36 43.91941 87.45162 2136 ft 4 kts 64°
2026-05-07 12:37 43.91949 87.45194 2135 ft 5 kts 73°
2026-05-07 12:37 43.91954 87.45216 2136 ft 11 kts 73°
2026-05-07 12:37 43.92000 87.45429 2135 ft 59 kts 73°
2026-05-07 12:37 43.92181 87.46281 2136 ft 122 kts 73°
2026-05-07 12:38 43.92584 87.48182 2149 ft 184 kts 72°
2026-05-07 12:38 43.92972 87.49950 2581 ft 199 kts 69°
2026-05-07 12:38 43.93268 87.51190 3090 ft 200 kts 69°
2026-05-07 12:38 43.93725 87.52990 3928 ft 195 kts 69°
2026-05-07 12:39 43.94186 87.54796 4273 ft 207 kts 69°
2026-05-07 12:39 43.94684 87.56767 4428 ft 226 kts 69°
2026-05-07 12:39 43.95534 87.59557 4886 ft 242 kts 49°
2026-05-07 12:39 43.96905 87.60843 5448 ft 245 kts 13°
2026-05-07 12:40 43.98062 87.60995 5731 ft 254 kts 358°
2026-05-07 12:40 43.99865 87.60642 6136 ft 267 kts 348°
2026-05-07 12:40 44.01702 87.60052 6689 ft 274 kts 346°
2026-05-07 12:40 44.03574 87.59462 7336 ft 278 kts 347°
2026-05-07 12:41 44.05488 87.58945 7964 ft 283 kts 349°
2026-05-07 12:41 44.07443 87.58507 8620 ft 287 kts 350°
2026-05-07 12:41 44.09431 87.58130 9297 ft 290 kts 351°
2026-05-07 12:41 44.11455 87.57958 9961 ft 295 kts
2026-05-07 12:42 44.13473 87.58603 10505 ft 305 kts 17°
2026-05-07 12:42 44.15552 87.59622 10628 ft 328 kts 18°
2026-05-07 12:42 44.17773 87.60723 10755 ft 349 kts 18°
2026-05-07 12:42 44.20094 87.61877 10870 ft 369 kts 18°
2026-05-07 12:43 44.22565 87.63102 11064 ft 384 kts 18°
2026-05-07 12:43 44.25101 87.64360 11546 ft 389 kts 17°
2026-05-07 12:43 44.27666 87.65630 12094 ft 393 kts 17°
2026-05-07 12:43 44.30251 87.66908 12652 ft 396 kts 17°
2026-05-07 12:44 44.32814 87.68376 13193 ft 402 kts 26°
2026-05-07 12:44 44.35126 87.70610 13728 ft 408 kts 39°
2026-05-07 12:44 44.37242 87.73276 14202 ft 411 kts 40°
2026-05-07 12:44 44.39365 87.75976 14690 ft 414 kts 40°
2026-05-07 12:45 44.41496 87.78698 15162 ft 417 kts 40°
2026-05-07 12:45 44.43644 87.81442 15621 ft 419 kts 40°
2026-05-07 12:45 44.45804 87.84198 16085 ft 422 kts 40°
2026-05-07 12:45 44.47981 87.86970 16548 ft 424 kts 40°
2026-05-07 12:46 44.50170 87.89759 17004 ft 427 kts 40°
2026-05-07 12:46 44.52350 87.92593 17447 ft 430 kts 44°
2026-05-07 12:46 44.54221 87.95884 17874 ft 435 kts 56°
2026-05-07 12:46 44.55597 87.99673 18290 ft 439 kts 68°
2026-05-07 12:47 44.56405 88.03816 18662 ft 443 kts 80°
2026-05-07 12:47 44.56597 88.08130 19040 ft 446 kts 92°
2026-05-07 12:47 44.56259 88.12458 19414 ft 448 kts 97°
2026-05-07 12:47 44.55855 88.16798 19775 ft 450 kts 97°
2026-05-07 12:48 44.55451 88.21163 20140 ft 452 kts 97°
2026-05-07 12:48 44.55052 88.25546 20498 ft 455 kts 96°
2026-05-07 12:48 44.54659 88.29956 20849 ft 457 kts 96°
2026-05-07 12:48 44.54267 88.34380 21178 ft 459 kts 96°
2026-05-07 12:49 44.53874 88.38829 21517 ft 461 kts 96°
2026-05-07 12:49 44.53474 88.43292 21850 ft 462 kts 96°
2026-05-07 12:49 44.53068 88.47772 22186 ft 464 kts 96°
2026-05-07 12:49 44.52660 88.52275 22465 ft 467 kts 96°
2026-05-07 12:50 44.52257 88.56802 22774 ft 469 kts 96°
2026-05-07 12:50 44.51861 88.61351 23090 ft 471 kts 96°
2026-05-07 12:50 44.51466 88.65922 23391 ft 474 kts 96°
2026-05-07 12:50 44.51066 88.70510 23673 ft 475 kts 96°
2026-05-07 12:51 44.50659 88.75117 23928 ft 477 kts 96°
2026-05-07 12:51 44.50247 88.79729 24190 ft 478 kts 96°
2026-05-07 12:51 44.49830 88.84351 24449 ft 479 kts 96°
2026-05-07 12:51 44.49407 88.88987 24693 ft 480 kts 96°
2026-05-07 12:52 44.48982 88.93634 24923 ft 482 kts 96°
2026-05-07 12:52 44.48561 88.98229 25163 ft 483 kts 96°
2026-05-07 12:52 44.48129 89.02961 25410 ft 484 kts 96°
2026-05-07 12:52 44.47705 89.07575 25656 ft 485 kts 96°
2026-05-07 12:53 44.47266 89.12324 25887 ft 486 kts 96°
2026-05-07 12:53 44.46829 89.17019 26124 ft 487 kts 96°
2026-05-07 12:53 44.46384 89.21714 26439 ft 486 kts 96°
2026-05-07 12:53 44.45935 89.26393 26776 ft 484 kts 96°
2026-05-07 12:54 44.45485 89.31059 27093 ft 484 kts 96°
2026-05-07 12:54 44.45036 89.35720 27427 ft 482 kts 96°
2026-05-07 12:54 44.44589 89.40365 27765 ft 481 kts 96°
2026-05-07 12:54 44.44150 89.44932 28107 ft 480 kts 96°
2026-05-07 12:55 44.43704 89.49548 28451 ft 478 kts 96°
2026-05-07 12:55 44.43256 89.54151 28796 ft 477 kts 96°
2026-05-07 12:55 44.42803 89.58739 29136 ft 475 kts 96°
2026-05-07 12:55 44.42347 89.63315 29480 ft 474 kts 96°
2026-05-07 12:56 44.41882 89.67875 29825 ft 473 kts 98°
2026-05-07 12:56 44.41106 89.72346 30153 ft 473 kts 105°
2026-05-07 12:56 44.40153 89.76745 30433 ft 472 kts 104°
2026-05-07 12:56 44.39203 89.81131 30707 ft 471 kts 104°
2026-05-07 12:57 44.38256 89.85511 30974 ft 470 kts 104°
2026-05-07 12:57 44.37309 89.89886 31248 ft 470 kts 104°
2026-05-07 12:57 44.36361 89.94247 31512 ft 469 kts 104°
2026-05-07 12:57 44.35412 89.98601 31778 ft 468 kts 104°
2026-05-07 12:58 44.34461 90.02950 32013 ft 468 kts 104°
2026-05-07 12:58 44.33510 90.07299 32242 ft 468 kts 104°
2026-05-07 12:58 44.32558 90.11647 32491 ft 468 kts 104°
2026-05-07 12:58 44.31604 90.15985 32749 ft 467 kts 104°
2026-05-07 12:59 44.30646 90.20314 33006 ft 466 kts 104°
2026-05-07 12:59 44.29688 90.24636 33279 ft 465 kts 104°
2026-05-07 12:59 44.28735 90.28946 33532 ft 465 kts 104°
2026-05-07 12:59 44.27783 90.33254 33788 ft 464 kts 104°
2026-05-07 13:00 44.26831 90.37551 34028 ft 463 kts 104°
2026-05-07 13:00 44.25878 90.41845 34206 ft 464 kts 104°
2026-05-07 13:00 44.24922 90.46145 34384 ft 464 kts 104°
2026-05-07 13:00 44.23964 90.50446 34569 ft 465 kts 104°
2026-05-07 13:01 44.23003 90.54750 34755 ft 465 kts 104°
2026-05-07 13:01 44.22039 90.59049 34947 ft 464 kts 105°
2026-05-07 13:01 44.20097 90.67662 35039 ft 467 kts 105°
2026-05-07 13:02 44.18157 90.76231 35052 ft 467 kts 105°
2026-05-07 13:02 44.16192 90.84873 35045 ft 469 kts 105°
2026-05-07 13:03 44.14220 90.93524 35063 ft 469 kts 105°
2026-05-07 13:03 44.12242 91.02182 35073 ft 469 kts 105°
2026-05-07 13:04 44.10267 91.10836 35074 ft 469 kts 105°
2026-05-07 13:04 44.08280 91.19490 35085 ft 470 kts 106°
2026-05-07 13:05 44.06278 91.28151 35076 ft 471 kts 107°
2026-05-07 13:05 44.05000 91.32348 35084 ft 473 kts 118°
2026-05-07 13:05 44.03141 91.36115 35083 ft 474 kts 130°
2026-05-07 13:06 44.00770 91.39295 35079 ft 474 kts 142°
2026-05-07 13:06 43.98011 91.41783 35086 ft 473 kts 154°
2026-05-07 13:06 43.94964 91.43479 35087 ft 471 kts 166°
2026-05-07 13:06 43.91756 91.44326 35086 ft 469 kts 174°
2026-05-07 13:07 43.85267 91.45484 35094 ft 470 kts 174°
2026-05-07 13:07 43.78772 91.46653 35104 ft 471 kts 174°
2026-05-07 13:08 43.72279 91.47842 35107 ft 471 kts 174°
2026-05-07 13:08 43.65783 91.49023 35101 ft 471 kts 174°
2026-05-07 13:09 43.59287 91.50197 35104 ft 470 kts 174°
2026-05-07 13:09 43.52799 91.51362 35105 ft 470 kts 174°
2026-05-07 13:10 43.46312 91.52530 35091 ft 470 kts 174°
2026-05-07 13:10 43.39834 91.53692 35076 ft 470 kts 173°
2026-05-07 13:11 43.33358 91.54863 35068 ft 469 kts 173°
2026-05-07 13:11 43.26889 91.56034 35071 ft 469 kts 173°
2026-05-07 13:12 43.20424 91.57207 35054 ft 469 kts 173°
2026-05-07 13:12 43.13960 91.58373 35042 ft 469 kts 173°
2026-05-07 13:13 43.07471 91.59535 35029 ft 477 kts 173°
2026-05-07 13:13 43.00860 91.60721 35015 ft 480 kts 173°
2026-05-07 13:14 42.94237 91.61912 35015 ft 480 kts 173°
2026-05-07 13:14 42.87611 91.63085 35025 ft 480 kts 173°
2026-05-07 13:15 42.80988 91.64269 35011 ft 480 kts 173°
2026-05-07 13:15 42.74358 91.65452 35016 ft 480 kts 173°
2026-05-07 13:16 42.67730 91.66623 35026 ft 480 kts 173°
2026-05-07 13:16 42.61104 91.67794 35024 ft 480 kts 173°
2026-05-07 13:17 42.54475 91.68959 35034 ft 480 kts 173°
2026-05-07 13:17 42.47849 91.70120 35044 ft 480 kts 173°
2026-05-07 13:18 42.41224 91.71307 35056 ft 480 kts 173°
2026-05-07 13:18 42.34606 91.72514 35067 ft 480 kts 173°
2026-05-07 13:19 42.27988 91.73703 35066 ft 480 kts 173°
2026-05-07 13:19 42.21371 91.74884 35073 ft 480 kts 173°
2026-05-07 13:20 42.14752 91.76065 35079 ft 480 kts 173°
2026-05-07 13:20 42.08140 91.77248 35085 ft 480 kts 173°
2026-05-07 13:21 42.01522 91.78425 35091 ft 480 kts 173°
2026-05-07 13:21 41.94904 91.79595 35090 ft 479 kts 173°
2026-05-07 13:22 41.88292 91.80758 35092 ft 479 kts 173°
2026-05-07 13:22 41.81678 91.81929 35094 ft 479 kts 173°
2026-05-07 13:23 41.76175 91.82902 35095 ft 479 kts 173°
2026-05-07 13:23 41.69580 91.84189 35096 ft 479 kts 166°
2026-05-07 13:24 41.66418 91.85593 35096 ft 478 kts 155°
2026-05-07 13:24 41.63518 91.87739 35099 ft 477 kts 144°
2026-05-07 13:24 41.58804 91.93876 35090 ft 474 kts 124°
2026-05-07 13:25 41.55234 92.01269 35090 ft 473 kts 122°
2026-05-07 13:25 41.51668 92.08659 35090 ft 474 kts 122°
2026-05-07 13:26 41.48091 92.16037 35094 ft 474 kts 122°
2026-05-07 13:26 41.44514 92.23408 35097 ft 474 kts 122°
2026-05-07 13:27 41.40935 92.30778 35110 ft 474 kts 122°
2026-05-07 13:27 41.37357 92.38146 35107 ft 474 kts 122°
2026-05-07 13:28 41.33796 92.45466 35115 ft 474 kts 122°
2026-05-07 13:28 41.30171 92.52865 35106 ft 474 kts 123°
2026-05-07 13:29 41.26587 92.60163 35107 ft 475 kts 123°
2026-05-07 13:29 41.22978 92.67518 35115 ft 475 kts 124°
2026-05-07 13:30 41.19357 92.74873 35109 ft 476 kts 124°
2026-05-07 13:30 41.15721 92.82235 35112 ft 477 kts 124°
2026-05-07 13:31 41.12083 92.89600 35117 ft 478 kts 124°
2026-05-07 13:31 41.08436 92.96970 35114 ft 478 kts 124°
2026-05-07 13:32 41.04775 93.04320 35120 ft 478 kts 124°
2026-05-07 13:32 41.01101 93.11665 35110 ft 479 kts 125°
2026-05-07 13:33 40.97423 93.19030 35114 ft 480 kts 125°
2026-05-07 13:33 40.93744 93.26407 35107 ft 481 kts 125°
2026-05-07 13:34 40.88200 93.37458 35119 ft 481 kts 125°
2026-05-07 13:35 40.84484 93.44816 35112 ft 482 kts 126°
2026-05-07 13:35 40.80762 93.52175 35115 ft 482 kts 126°
2026-05-07 13:36 40.77036 93.59546 35118 ft 483 kts 126°
2026-05-07 13:36 40.73162 93.66764 35120 ft 482 kts 130°
2026-05-07 13:37 40.68967 93.73633 35123 ft 481 kts 132°
2026-05-07 13:37 40.64697 93.80420 35123 ft 481 kts 132°
2026-05-07 13:38 40.60520 93.87234 35096 ft 482 kts 133°
2026-05-07 13:38 40.56348 93.94162 35097 ft 483 kts 133°
2026-05-07 13:39 40.52169 94.01096 35103 ft 484 kts 133°
2026-05-07 13:39 40.47968 94.08011 35102 ft 484 kts 133°
2026-05-07 13:40 40.43749 94.14912 35105 ft 485 kts 133°
2026-05-07 13:40 40.39522 94.21810 35081 ft 485 kts 135°
2026-05-07 13:41 40.35293 94.28701 35087 ft 485 kts 135°
2026-05-07 13:41 40.31061 94.35600 35092 ft 486 kts 135°
2026-05-07 13:42 40.26823 94.42487 35107 ft 486 kts 135°
2026-05-07 13:42 40.22577 94.49363 35114 ft 485 kts 135°
2026-05-07 13:43 40.18322 94.56223 35131 ft 486 kts 135°
2026-05-07 13:43 40.14065 94.63090 35104 ft 486 kts 135°
2026-05-07 13:44 40.09988 94.70160 35115 ft 493 kts 126°
2026-05-07 13:44 40.06910 94.78169 35128 ft 497 kts 121°
2026-05-07 13:45 40.03868 94.86282 35126 ft 498 kts 121°
2026-05-07 13:45 40.00815 94.94386 35152 ft 498 kts 121°
2026-05-07 13:46 39.97758 95.02477 35148 ft 497 kts 122°
2026-05-07 13:46 39.94692 95.10565 35165 ft 498 kts 122°
2026-05-07 13:47 39.91631 95.18652 35189 ft 498 kts 122°
2026-05-07 13:47 39.88571 95.26737 35222 ft 497 kts 121°
2026-05-07 13:48 39.85505 95.34797 35240 ft 496 kts 121°
2026-05-07 13:48 39.82437 95.42847 35236 ft 497 kts 121°
2026-05-07 13:49 39.79359 95.50888 35270 ft 496 kts 122°
2026-05-07 13:49 39.76273 95.58925 35268 ft 497 kts 121°
2026-05-07 13:50 39.73188 95.66963 35276 ft 497 kts 122°
2026-05-07 13:50 39.70093 95.74991 35299 ft 497 kts 122°
2026-05-07 13:51 39.66983 95.83032 35295 ft 499 kts 121°
2026-05-07 13:51 39.63870 95.91082 35289 ft 499 kts 121°
2026-05-07 13:52 39.60747 95.99124 35305 ft 499 kts 121°
2026-05-07 13:52 39.57612 96.07164 35346 ft 499 kts 122°
2026-05-07 13:53 39.54468 96.15193 35353 ft 500 kts 122°
2026-05-07 13:53 39.51308 96.23209 35354 ft 500 kts 122°
2026-05-07 13:54 39.48138 96.31216 35389 ft 500 kts 122°
2026-05-07 13:54 39.44963 96.39223 35394 ft 500 kts 122°
2026-05-07 13:55 39.41790 96.47213 35387 ft 499 kts 122°
2026-05-07 13:55 39.38604 96.55197 35380 ft 500 kts 122°
2026-05-07 13:56 39.35409 96.63182 35388 ft 500 kts 122°
2026-05-07 13:56 39.32233 96.71119 35374 ft 501 kts 122°